Vorticity
nan nan nan nan nan nan nan nan nan nan nan nan nan nan nan nan nan nan nan nan nan nan nan nan nan nan nan nan nan nan nan nan nan nan nan nan nan nan nan nan nan nan nan nan nan nan nan nan nan
nan 2 6 9 7 4 7 9 6 3 -1 5 7 5 9 5 4 11 10 13 12 4 7 9 9 7 6 6 4 6 5 6 6 6 6 6 6 7 7 8 8 5 4 4 4 3 5 8 nan
nan 5 8 8 4 3 7 9 6 3 4 3 6 6 6 5 9 7 9 17 8 4 7 10 10 6 6 5 5 6 6 6 7 7 7 7 7 7 6 6 6 6 6 5 5 6 8 10 nan
nan 3 7 9 4 6 8 7 10 5 9 9 5 2 6 10 9 11 14 10 6 5 6 11 9 6 6 5 6 6 7 7 7 8 9 7 5 4 4 3 5 6 6 6 9 9 9 8 nan
nan 9 7 1 8 7 3 6 12 7 6 10 8 7 3 7 16 15 9 9 4 3 8 11 9 6 5 5 6 7 6 7 7 7 8 7 4 3 3 3 4 5 5 7 5 5 6 7 nan
nan 6 9 8 -0 6 6 10 4 6 5 7 10 12 2 8 13 8 7 8 6 5 7 9 8 6 6 5 6 7 6 6 7 8 6 6 6 5 5 4 6 6 7 7 6 5 3 4 nan
nan 9 5 12 9 2 8 8 6 4 2 8 10 3 4 9 8 10 7 8 8 6 6 7 6 7 7 5 6 6 7 7 6 6 6 6 5 5 5 6 6 7 7 6 8 7 7 7 nan
nan 5 8 2 9 7 9 6 8 9 1 10 10 5 6 13 10 9 13 10 4 5 7 6 6 6 5 7 7 6 8 9 9 6 4 4 4 6 4 5 8 7 7 7 7 7 5 5 nan
nan 6 9 10 0 3 10 6 5 7 9 7 7 5 13 17 10 9 8 4 4 7 8 6 6 6 7 5 5 7 6 3 3 4 4 3 4 3 5 6 7 9 8 6 5 4 4 -0 nan
nan -0 5 10 12 7 7 7 7 7 7 4 4 9 19 14 8 3 5 5 4 6 6 7 7 7 4 4 5 3 1 1 2 2 1 4 7 5 3 2 2 2 2 -2 -1 -1 -1 3 nan
nan 2 2 3 6 6 9 7 8 5 6 10 5 11 13 8 6 3 7 7 4 3 6 9 7 7 5 4 2 4 4 6 6 6 7 7 4 4 4 2 1 0 -0 1 -0 0 2 6 nan
nan 13 5 -2 4 7 6 5 10 7 6 8 14 11 7 9 9 4 4 7 5 6 8 7 7 6 5 5 6 8 8 7 6 7 7 4 5 6 6 6 7 7 5 7 6 7 7 6 nan
nan 2 6 4 -4 6 5 6 7 7 7 8 19 15 9 7 7 8 6 6 7 5 8 8 7 6 6 6 8 7 7 8 7 6 6 8 7 7 6 7 8 8 8 6 7 7 6 5 nan
nan 11 8 9 2 -3 6 4 -0 9 11 14 12 12 8 8 2 6 13 7 5 6 7 8 7 6 6 8 7 6 8 8 6 6 6 8 8 7 7 7 7 7 7 8 8 8 7 6 nan
nan 12 9 7 13 3 6 5 6 0 11 9 8 10 10 8 7 10 8 5 4 7 8 7 5 7 7 7 5 7 8 8 7 6 7 8 9 8 7 6 6 7 8 8 7 7 7 7 nan
nan 7 7 10 5 11 8 2 17 5 4 6 8 10 11 11 9 4 7 10 5 8 9 7 6 7 6 6 6 9 10 8 7 8 7 8 9 9 7 7 8 8 7 6 7 5 6 6 nan
nan 13 15 8 7 7 0 8 12 12 4 5 7 12 12 3 1 12 14 9 7 6 8 8 8 7 4 4 7 8 9 8 7 8 9 9 8 8 8 8 9 8 7 8 6 9 8 7 nan
nan 11 15 22 9 6 2 4 1 12 7 8 7 12 13 7 5 9 9 7 9 8 7 7 9 6 5 4 6 5 6 7 9 9 10 9 8 8 8 8 8 7 7 7 8 8 9 9 nan
nan 12 8 17 19 12 5 7 5 5 5 6 8 10 14 12 4 4 9 5 9 12 10 9 8 5 3 4 4 6 6 6 6 9 10 9 10 9 7 7 7 8 9 9 7 6 6 5 nan
nan 11 11 10 22 9 18 8 2 7 11 8 7 9 11 9 5 7 8 8 7 7 8 9 8 7 4 6 5 9 8 8 8 8 8 9 9 8 9 8 6 9 8 8 6 4 3 5 nan
nan 7 9 11 9 10 17 23 7 -3 9 13 14 10 11 14 6 3 5 7 7 7 8 9 9 7 8 7 6 7 8 8 7 8 8 10 10 10 9 8 8 7 8 7 6 7 8 6 nan
nan 10 3 7 10 17 10 16 18 6 1 7 9 13 11 10 11 8 5 7 8 7 8 9 9 7 10 10 11 8 3 5 6 9 8 8 9 10 10 10 10 7 7 8 7 8 8 9 nan
nan 15 18 7 7 14 9 6 24 18 -3 3 12 9 11 13 10 7 8 9 9 9 8 8 8 8 7 11 8 7 5 6 11 12 9 5 7 8 8 9 9 8 8 9 8 8 7 8 nan
nan 12 12 8 11 13 16 6 14 22 14 -4 2 15 14 11 12 7 8 10 10 11 11 9 8 9 9 7 8 9 9 4 6 7 6 7 6 9 9 9 8 9 10 8 8 9 9 8 nan
nan 12 12 9 6 13 16 5 -2 3 16 24 14 12 14 12 9 10 10 7 9 10 9 9 9 10 10 9 9 7 13 9 8 4 5 7 6 8 11 8 10 9 10 9 9 8 9 9 nan
nan 7 12 12 8 14 12 3 2 8 12 16 18 16 12 13 11 9 9 9 8 9 10 10 9 8 8 8 9 15 13 8 9 12 9 5 9 9 10 10 10 11 10 9 9 9 10 10 nan
nan 10 9 11 10 12 8 10 6 9 13 11 13 12 9 11 11 10 10 11 9 8 10 11 9 9 10 8 7 8 9 15 11 11 10 10 9 11 9 12 9 10 8 9 10 10 9 9 nan
nan 12 10 11 10 6 6 10 5 4 9 10 9 9 10 9 9 10 9 9 9 10 9 10 12 10 10 9 9 9 8 8 11 10 10 12 11 11 10 10 8 10 10 10 9 9 10 10 nan
nan 14 11 11 11 8 8 7 8 8 9 10 7 9 11 10 8 8 9 9 10 10 9 9 10 10 9 9 11 10 10 9 8 6 10 9 9 10 11 9 11 9 9 9 9 10 9 8 nan
nan nan nan nan nan nan nan nan nan nan nan nan nan nan nan nan nan nan nan nan nan nan nan nan nan nan nan nan nan nan nan nan nan nan nan nan nan nan nan nan nan nan nan nan nan nan nan nan nan
CAPE
0 0 0 0 0 0 0 0 0 0 0 0 0 0 0 0 0 0 0 36 106 313 652 1506 2011 1892 2115 2073 2030 1918 1844 1746 1762 1887 1826 1501 1518 1476 1444 1423 1373 1271 1339 1302 1233 994 920 1023 1117
0 0 0 0 0 0 0 0 0 0 0 0 0 0 0 0 0 0 18 30 266 445 779 1215 2036 2026 2058 2119 2118 1973 1841 1816 1818 1878 1827 1827 1510 1428 1464 1544 1470 1409 1489 1381 965 797 833 1224 1491
0 0 0 0 0 0 0 0 0 0 0 0 0 0 0 0 0 0 8 145 374 542 965 1219 1961 2277 2172 2168 2133 1999 1973 1873 1814 1815 1718 1729 1449 1343 1305 1446 1332 1417 1381 1214 1011 1008 1075 1203 1246
6 0 0 0 0 0 0 0 0 0 0 0 0 0 0 0 0 0 145 308 519 570 779 1629 1967 2317 2216 2183 2114 2029 2068 1952 1767 1590 1522 1467 1269 1190 807 621 1118 1150 1024 1078 1061 901 976 1061 994
0 0 0 0 0 0 0 0 0 0 0 0 0 0 0 0 0 124 280 493 692 890 1035 1725 2114 2248 2146 2085 2109 2132 2052 1953 1745 1587 1461 1210 863 650 354 355 501 663 828 681 624 692 728 872 693
22 0 0 0 0 0 0 0 0 0 0 0 0 0 0 0 147 220 424 576 780 1106 1669 1725 1866 1927 1926 2054 1949 2019 1991 1881 1743 1603 1452 1293 820 539 472 1016 991 891 789 681 608 581 388 460 292
1 0 0 0 0 0 0 0 0 0 0 0 0 0 0 0 84 369 446 738 996 1238 1719 1609 1626 1628 1645 1653 1666 1757 1772 1573 1489 1281 1094 910 759 830 848 995 1063 967 602 706 531 421 318 256 128
12 0 0 0 0 0 0 0 0 0 0 0 0 0 0 0 0 207 505 741 1189 1462 1590 1482 1405 1432 1355 1287 1309 1314 1215 1135 1167 913 618 483 461 495 656 521 641 637 432 297 100 107 75 6 6
4 11 0 0 0 0 0 0 0 0 0 0 0 0 0 0 339 532 410 610 1105 1492 1339 1270 1305 1304 1173 1053 606 699 645 489 318 239 160 226 182 82 71 31 52 147 55 14 14 15 10 5 3
24 4 0 0 0 0 0 0 0 0 0 0 0 0 0 59 564 439 347 485 999 1347 1231 1060 997 959 959 644 421 165 94 150 117 110 41 16 2 1 0 0 5 13 7 4 6 3 0 0 0
17 2 0 0 0 0 0 0 0 0 0 0 0 0 0 312 526 482 481 535 970 1231 1054 874 732 776 551 340 126 51 3 0 0 0 0 0 0 0 0 0 0 0 0 0 0 0 0 0 0
5 11 1 0 0 0 0 0 0 0 0 0 0 0 0 279 415 521 637 688 786 979 830 814 626 490 275 160 83 0 0 0 0 0 0 0 0 0 0 0 0 0 0 0 0 0 0 0 0
35 26 19 1 0 0 0 0 0 0 0 0 0 0 0 196 593 744 804 819 626 763 717 549 367 185 144 49 0 0 0 0 0 0 0 0 0 0 0 0 0 0 0 0 0 0 0 0 0
2 3 52 35 1 0 0 0 0 0 0 0 0 0 0 163 541 247 715 617 834 772 431 247 118 113 3 0 0 0 0 0 0 0 0 0 0 0 0 0 0 0 0 0 0 0 0 0 0
17 0 22 22 13 1 13 1 0 0 0 0 0 0 0 124 257 378 751 676 795 584 368 166 25 0 0 0 0 0 0 0 0 0 0 0 0 0 0 0 0 0 0 0 0 0 0 0 0
32 6 6 2 8 11 62 1 0 0 0 0 0 11 41 97 196 390 471 715 528 395 204 11 0 0 0 0 0 0 0 0 0 0 0 0 0 0 0 0 0 0 0 0 0 0 0 0 0
18 2 3 0 0 29 33 0 0 0 0 0 0 0 88 113 102 0 309 431 340 215 13 0 0 0 0 0 0 0 0 0 0 0 0 0 0 0 0 0 0 0 0 0 0 0 0 0 0
0 2 43 2 0 12 7 10 0 0 0 0 0 0 68 86 87 0 87 228 224 88 0 0 1 0 0 0 0 0 0 0 0 0 0 0 0 0 0 0 0 0 0 0 0 0 0 0 0
32 8 0 0 0 1 8 3 8 0 0 0 0 0 0 30 99 21 0 0 0 0 0 0 1 0 0 0 0 0 0 0 0 0 0 0 0 0 0 0 0 0 0 0 0 0 0 0 0
21 15 4 0 1 0 5 4 45 0 0 0 0 0 0 29 34 12 0 0 0 0 0 0 1 3 2 0 0 0 0 0 0 0 0 0 0 0 0 0 0 0 0 0 0 0 0 0 0
15 4 0 11 14 5 0 4 8 2 0 0 0 0 0 1 15 2 0 0 0 0 0 0 0 0 0 0 0 0 0 0 0 0 0 0 0 0 0 0 0 0 0 0 0 0 0 0 0
0 1 0 2 10 2 19 1 2 18 0 0 0 0 0 0 25 4 0 0 0 0 0 0 0 0 0 0 0 0 0 0 0 0 0 0 0 0 0 0 0 0 0 0 0 0 0 0 0
0 2 0 0 0 0 3 0 0 1 3 0 0 0 0 3 29 0 0 0 0 0 0 0 0 0 0 0 0 0 0 0 0 0 0 0 0 0 0 0 0 0 0 0 0 0 0 0 0
0 0 20 0 0 1 0 1 0 1 0 0 0 0 0 14 40 2 0 0 0 0 0 0 0 0 1 0 0 0 0 0 0 0 0 0 0 0 0 0 0 0 0 0 0 0 0 0 0
4 0 0 8 5 0 0 24 0 0 0 0 0 0 0 31 0 0 0 0 0 0 0 0 0 0 0 0 0 0 2 0 0 0 0 0 0 0 0 0 0 0 0 0 0 0 0 0 0
0 0 1 0 0 13 2 4 0 0 1 0 0 0 0 0 0 0 0 0 1 0 0 0 0 0 0 0 0 0 0 0 0 0 0 0 0 0 0 0 0 0 0 0 0 0 0 0 0
0 0 0 0 0 0 0 0 0 0 1 0 0 0 0 0 0 0 0 1 0 0 0 0 0 0 0 0 0 0 0 0 0 0 0 0 0 0 0 0 0 0 0 0 0 0 0 0 0
1 4 0 0 0 0 0 0 0 0 0 1 0 0 0 0 0 0 0 0 0 0 0 0 0 0 0 0 0 0 0 0 0 0 0 0 0 0 0 0 0 0 0 0 0 0 0 0 0
0 0 0 0 0 0 0 0 0 0 0 0 0 0 0 0 0 0 0 0 0 0 0 0 0 0 0 0 0 0 0 0 0 0 0 0 0 0 0 0 0 0 0 0 0 0 0 0 0
0 0 0 0 0 0 0 0 0 0 0 0 0 0 0 1 1 0 0 0 0 0 0 0 0 0 0 0 0 0 0 0 0 0 0 0 0 0 0 0 0 0 0 0 0 0 0 0 0